Flag for Botswana Weather past 2 weeks in Molepolole, Botswana

Now
66 °F

Sunny.


Feels Like: 66 °F
Forecast: 52 / 80 °F
Wind: 12 mph from Southwest

Location: Seretse Khama International Airport

Current Time: Sep 1, 2015 at 8:39:42 AM

Latest Report: Sep 1, 2015 at 8:00 AM


Visibility: 10 mi

Pressure: 30.07 "Hg (26.30 "Hg at 1145m altitude)

Humidity: 43%

Dew point: 43 °F

Location of MolepololeLocation

Historic Weather in Molepolole — Graph

°F

Molepolole temperature yesterday

Maximum temperature yesterday: 91 °F (at 3:00 PM)
Minimum temperature yesterday: 61 °F (at 4:00 AM)
Average temperature yesterday: 78 °F

Past Weeks' High & Low Weather Summary

 TemperatureHumidityPressure
High91 °F (Aug 30, 2:00 PM)82% (Aug 24, 6:00 AM)30.39 "Hg (Aug 24, 6:00 AM)
Low46 °F (Aug 17, 7:00 AM)9% (Aug 30, 2:00 PM)29.92 "Hg (Aug 31, 4:00 PM)
Average71 °F34%30.16 "Hg
* Reported Aug 17 7:00 AM — Sep 1 7:00 AM, Molepolole, Weather by CustomWeather, © 2015

Note: Actual official high and low records may vary slightly from our data, if they occured in-between our weather recording intervals... More about our weather records

Advertising

Molepolole weather history for previous 24 hours

 ConditionsComfort  
Time TempWeatherWind HumidityBarometerVisibility
7:00 AM
Tue, Sep 1
64 °FSunny.5 mph46%30.04 "Hg10 mi
5:00 AM64 °FClear.5 mph34%30.01 "Hg10 mi
4:00 AM66 °FClear.6 mph35%29.98 "Hg10 mi
3:00 AM68 °FPassing clouds.5 mph28%29.98 "HgN/A
2:00 AM72 °FPassing clouds.5 mph25%29.98 "HgN/A
1:00 AM73 °FClear.9 mph23%29.95 "Hg10 mi
12:00 AM73 °FClear.9 mph22%29.95 "Hg10 mi
11:00 PM
Mon, Aug 31
75 °FClear.7 mph21%29.98 "Hg10 mi
10:00 PM77 °FClear.10 mph21%29.98 "Hg10 mi
9:00 PM79 °FClear.9 mph20%29.98 "Hg10 mi
8:00 PM79 °FClear.7 mph18%29.95 "Hg10 mi
7:00 PM82 °FClear.9 mph15%29.95 "Hg10 mi
5:00 PM90 °FSunny.10 mph12%29.92 "Hg10 mi
4:00 PM91 °FPassing clouds.13 mph11%29.92 "HgN/A
3:00 PM91 °FPassing clouds.12 mph12%29.95 "HgN/A
2:00 PM90 °FPassing clouds.12 mph14%29.98 "HgN/A
1:00 PM88 °FPassing clouds.14 mph16%30.04 "HgN/A
12:00 PM86 °FSunny.16 mph19%30.07 "Hg10 mi
11:00 AM81 °FPassing clouds.14 mph24%30.09 "HgN/A
10:00 AM75 °FPassing clouds.13 mph31%30.12 "HgN/A
9:00 AM72 °FPassing clouds.7 mph36%30.15 "HgN/A
8:00 AM66 °FPassing clouds.9 mph40%30.12 "HgN/A
Weather by CustomWeather, © 2015

See weather overviewHow to use our weather pages